Weather History for Vacaville, CA

Change the Weather History Date:

Sunday, April 20, 2014

  Actual Average Record
Temperature  
Mean Temperature 65 °F -  
Max Temperature 82 °F 73 °F 96 °F (2009)
Min Temperature 48 °F 44 °F 31 °F (1967)
Growing Degree Days 15 (Base 50)    
Moisture  
Dew Point 47 °F    
Average Humidity 59    
Maximum Humidity 96    
Minimum Humidity 22    
Precipitation  
Precipitation 0.00 in - - ()
Sea Level Pressure  
Sea Level Pressure 30.08 in    
Wind  
Wind Speed 1 mph (SSW)    
Max Wind Speed 8 mph    
Max Gust Speed -    
Visibility 10 miles    
Events      
Averages and records for this station are not official NWS values.
T = Trace of Precipitation, MM = Missing Value Source: NWS Daily Summary

Daily Weather History Graph

Daily Weather History Graph

Search for Another Location

Airport:

Trip Planner

Search our weather history database for the weather conditions in past years. The results will help you decide how hot, cold, wet, or windy it might be!

Date:

Astronomy

Apr. 20, 2014 Rise Set
Actual Time 6:24 AM PDT 7:49 PM PDT
Civil Twilight 5:57 AM PDT 8:16 PM PDT
Nautical Twilight 5:24 AM PDT 8:50 PM PDT
Astronomical Twilight 4:49 AM PDT 9:25 PM PDT
Moon 12:31 AM PDT (4/20) 10:52 AM PDT (4/20)
Length of Visible Light 14h 19m
Length of Day
13h 24m
Waning Gibbous, 67% of the Moon is Illuminated
Apr 20
Waning Gibbous
Apr 22
Last Quarter
Apr 28
New
May 6
First Quarter
May 14
Full

Hourly Weather History & Observations

Time (PDT) Temp. Dew Point Humidity Pressure Visibility Wind Dir Wind Speed Gust Speed Precip Events Conditions
12:53 AM 53.1 °F 48.9 °F 86% 30.09 in 10.0 mi Calm Calm - N/A   Clear
1:53 AM 51.1 °F 48.9 °F 92% 30.10 in 10.0 mi Calm Calm - N/A   Clear
2:53 AM 48.9 °F 46.9 °F 93% 30.10 in 10.0 mi Calm Calm - N/A   Clear
3:53 AM 51.1 °F 48.0 °F 89% 30.11 in 10.0 mi Calm Calm - N/A   Clear
4:53 AM 50.0 °F 48.9 °F 96% 30.11 in 10.0 mi Calm Calm - N/A   Clear
5:53 AM 50.0 °F 46.9 °F 89% 30.12 in 10.0 mi Calm Calm - N/A   Clear
6:53 AM 48.0 °F 46.0 °F 93% 30.13 in 10.0 mi Calm Calm - N/A   Clear
7:53 AM 55.0 °F 50.0 °F 83% 30.14 in 10.0 mi Calm Calm - N/A   Clear
8:53 AM 60.1 °F 51.1 °F 72% 30.14 in 10.0 mi Calm Calm - N/A   Clear
9:53 AM 64.0 °F 48.9 °F 58% 30.14 in 10.0 mi East 3.5 mph - N/A   Clear
10:53 AM 70.0 °F 46.9 °F 44% 30.14 in 10.0 mi Variable 3.5 mph - N/A   Clear
11:53 AM 75.0 °F 42.1 °F 31% 30.13 in 10.0 mi Variable 3.5 mph - N/A   Clear
12:53 PM 77.0 °F 41.0 °F 28% 30.11 in 10.0 mi Calm Calm - N/A   Clear
1:53 PM 80.1 °F 41.0 °F 25% 30.09 in 10.0 mi Variable 3.5 mph - N/A   Clear
2:53 PM 82.0 °F 39.0 °F 22% 30.07 in 10.0 mi Variable 4.6 mph - N/A   Clear
3:53 PM 81.0 °F 51.1 °F 35% 30.05 in 10.0 mi SE 8.1 mph - N/A   Clear
4:53 PM 81.0 °F 51.1 °F 35% 30.04 in 10.0 mi SW 8.1 mph - N/A   Clear
5:53 PM 81.0 °F 48.9 °F 33% 30.02 in 10.0 mi SW 3.5 mph - N/A   Clear
6:53 PM 77.0 °F 46.9 °F 34% 30.01 in 10.0 mi SW 6.9 mph - N/A   Clear
7:53 PM 73.0 °F 45.0 °F 37% 30.01 in 10.0 mi SSW 3.5 mph - N/A   Clear
8:53 PM 64.9 °F 46.9 °F 52% 30.02 in 10.0 mi Calm Calm - N/A   Clear
9:53 PM 61.0 °F 46.0 °F 58% 30.03 in 10.0 mi Calm Calm - N/A   Clear
10:53 PM 57.9 °F 46.9 °F 67% 30.03 in 10.0 mi Calm Calm - N/A   Clear
11:53 PM 60.1 °F 45.0 °F 57% 30.02 in 10.0 mi SW 5.8 mph - N/A   Clear